Location: ????? ??????
(37.8317°N, 23.8750°E)
Time: 12:25:31
(UTC+00:00)

ERS-2 - Pass Details

Date: 20 January 2021
Orbit: 492 x 497 km, 98.6° (Epoch: 03 March)

Event Time Altitude Azimuth Distance (km) Brightness Sun altitude
Exits shadow 16:07:01 - 28° (NNE) 2,444 5.2 -6.7°
Reaches altitude 10° 16:09:01 10° 40° (NE) 1,692 4.3 -7.1°
Maximum altitude 16:12:05 26° 98° (E) 1,012 3.2 -7.7°
Drops below altitude 10° 16:15:08 10° 156° (SSE) 1,679 4.7 -8.2°
Sets 16:17:26 0° 169° (S) 2,555 5.8 -8.7°
